Location: Bednik
(45.3500°N, 16.3833°E)
Time: 05:08:47
(UTC+00:00)

SL-16 R/B - Pass Details

Date: 08 August 2020
Orbit: 843 x 845 km, 71.0° (Epoch: 19 September)

Event Time Altitude Azimuth Distance (km) Brightness Sun altitude
Rises 21:35:40 0° 331° (NNW) 3,415 6.7 -25.9°
Reaches altitude 10° 21:38:08 10° 329° (NNW) 2,476 5.6 -26.1°
Maximum altitude 21:43:46 68° 248° (WSW) 912 2.2 -26.4°
Enters shadow 21:44:08 65° 223° (SW) 925 2.2 -26.5°
